Regional Weather Roundup
Issued by NWS State College, PA

Home | Current Version | Previous Version | Text Only | Print | Product List | Glossary On
Versions: 1 2 3 4 5 6 7 8 9 10 11 12 13 14 15 16 17 18 19 20 21 22 23 24 25 26 27 28 29 30 31 32 33 34 35 36 37 38 39 40 41 42 43 44 45 46 47 48 49 50
872
ASUS41 KCTP 220710
RWRCTP

REGIONAL WEATHER ROUNDUP
NATIONAL WEATHER SERVICE STATE COLLEGE PA
200 AM EST SUN JAN 22 2017

Note: "fair" indicates few or no clouds below 12,000 feet with no
significant weather and/or obstructions to visibility.

* = STATION THAT DOES NOT REPORT PRECIPITATION /E.G. RAIN...SNOW...ETC/
    THUNDER OR FOG.

PAZ002>004-007>009-013>016-020>023-029>032-220800-
WESTERN PENNSYLVANIA

CITY           SKY/WX    TMP DP  RH WIND       PRES   REMARKS
ERIE           PTCLDY    53  47  79 CALM      29.66S
MEADVILLE      CLOUDY    53  45  74 S10       29.67S
FRANKLIN*        N/A     52  48  87 SW5       29.70S
NEW CASTLE     LGT RAIN  50  50 100 SW7       29.71R VSB 3/4
BEAVER COUNTY  NOT AVBL
BUTLER*        CLOUDY    48  46  93 CALM      29.72R
PITTSBURGH INT CLOUDY    48  47  96 NW7       29.68S
PITTSBURGH     CLOUDY    54  47  77 CALM      29.67F
INDIANA*       CLOUDY    48  48 100 CALM      29.71F
LATROBE        CLOUDY    48  48 100 CALM      29.69S
WASHINGTON CO* CLOUDY    46  45  93 CALM      29.67F
$$

PAZ004>006-010>012-017>019-024>028-033>037-041-042-045-046-049>053-220800-
CENTRAL PENNSYLVANIA

CITY           SKY/WX    TMP DP  RH WIND       PRES   REMARKS
BRADFORD       CLOUDY    47  47 100 SW3       29.67F
DUBOIS         MOCLDY    47  44  90 CALM      29.68F
CLEARFIELD     FOG       40  40 100 NE3       29.71R VSB 1/4
JOHNSTOWN      CLOUDY    50  46  86 E3        29.68S
ALTOONA        FOG       43  43 100 CALM      29.72R VSB 1/4
STATE COLLEGE  FOG       41  41 100 CALM      29.72S VSB 1/4
WILLIAMSPORT   FOG       41  40  96 CALM      29.74F VSB 1/2
SELINSGROVE    FOG       41  41 100 N3        29.75F VSB 1/4
FT INDIANTOWN  FOG       43  43 100 CALM      29.74R VSB 3/4
CAPITAL CITY   FOG       44  42  93 CALM      29.73F VSB 1/4
HARRISBURG     FOG       44  44 100 N3        29.72F VSB 1/8
YORK           FOG       45  45 100 CALM      29.73F VSB 1/4
$$

PAZ038>040-043-044-047-048-054-055-060>062-067>071-220800-
EASTERN PENNSYLVANIA

CITY           SKY/WX    TMP DP  RH WIND       PRES   REMARKS
SCRANTON       FOG       43  43 100 CALM      29.72F VSB 1/4
MOUNT POCONO   CLOUDY    39  39 100 CALM      29.71F
ALLENTOWN      FOG       43  40  89 NE5       29.74F VSB 1/4
QUAKERTOWN*    CLOUDY    43  43 100 NE3       29.74F VSB 1/2
READING        CLOUDY    43  43 100 N3        29.73S FOG
LANCASTER      FOG       43  43 100 SE5       29.74S VSB 1/4
COATESVILLE    FOG       43  43 100 CALM      29.75F VSB<1/4
POTTSTOWN      FOG       43  43 100 CALM      29.75F VSB 1/4
BLUE BELL      CLOUDY    43  43 100 S5        29.75R VSB 1/4
DOYLESTOWN     FOG       45  44  97 CALM      29.74F VSB 3/4
WILLOW GROVE   NOT AVBL
NORTH PHILA    FOG       47  46  97 CALM      29.77F VSB 1/4
PHILADELPHIA   FOG       45  44  97 S3        29.77S VSB 1/2
$$




USA.gov is the U.S. government's official web portal to all federal, state and local government web resources and services.